Location: Colonia Mina de C?rbuni
(46.1667°N, 22.7167°E)
Time: 21:55:22
(UTC+00:00)

Explorer 11/Cluster Stage 4 - Visible Passes

Search period start: 12 April 2024 00:00
Search period end: 22 April 2024 00:00
Orbit: 465 x 1220 km, 28.8° (Epoch: 11 April)

Date Brightness Start Highest point End Pass type
(mag) Time Alt. Az. Time Alt. Az. Time Alt. Az.
12 Apr 9.1 02:43:08 10° SSW 02:46:56 15° SSE 02:50:58 10° SE visible
13 Apr 9.0 02:25:50 10° SSW 02:29:32 15° SSE 02:33:28 10° SE visible
14 Apr 8.9 02:08:58 11° SSW 02:12:07 15° SSE 02:15:55 10° SE visible
15 Apr 8.8 01:52:43 13° S 01:54:45 14° SSE 01:58:20 10° SE visible
16 Apr 8.7 01:36:28 14° S 01:37:24 14° SSE 01:40:43 10° SE visible
17 Apr 8.7 01:20:14 13° SSE 01:20:14 13° SSE 01:23:02 10° SE visible
17 Apr 8.7 03:03:14 10° SW 03:07:14 17° S 03:11:37 10° SE visible
18 Apr 8.9 01:04:02 12° SSE 01:04:02 12° SSE 01:05:20 10° SE visible
18 Apr 8.7 02:46:15 10° SW 02:49:52 16° S 02:53:49 10° SSE visible
19 Apr 8.6 02:29:36 11° SSW 02:32:31 15° S 02:35:57 10° SSE visible
20 Apr 8.5 02:13:30 12° SSW 02:15:11 13° S 02:18:01 10° SSE visible
21 Apr 8.6 01:57:29 12° S 01:57:52 12° S 01:59:54 10° SSE visible
